TimeEST,TemperatureF,Dew PointF,Humidity,Sea Level PressureIn,VisibilityMPH,Wind Direction,Wind SpeedMPH,Gust SpeedMPH,PrecipitationIn,Events,Conditions,WindDirDegrees,DateUTC
12:53 AM,21.9,18.0,85,30.17,10.0,Calm,Calm,-,N/A,,Clear,0,2012-12-12 05:53:00
1:53 AM,21.0,18.0,88,30.19,10.0,Calm,Calm,-,N/A,,Clear,0,2012-12-12 06:53:00
2:53 AM,19.9,16.0,85,30.22,10.0,Calm,Calm,-,N/A,,Clear,0,2012-12-12 07:53:00
3:53 AM,19.9,15.1,81,30.23,10.0,Calm,Calm,-,N/A,,Clear,0,2012-12-12 08:53:00
4:53 AM,19.0,14.0,81,30.25,10.0,Calm,Calm,-,N/A,,Clear,0,2012-12-12 09:53:00
5:53 AM,18.0,14.0,84,30.28,10.0,Calm,Calm,-,N/A,,Clear,0,2012-12-12 10:53:00
6:53 AM,18.0,14.0,84,30.32,10.0,Calm,Calm,-,N/A,,Clear,0,2012-12-12 11:53:00
7:53 AM,18.0,14.0,84,30.33,10.0,Calm,Calm,-,N/A,,Clear,0,2012-12-12 12:53:00
8:53 AM,24.1,19.0,81,30.35,10.0,Calm,Calm,-,N/A,,Clear,0,2012-12-12 13:53:00
9:53 AM,28.9,19.9,69,30.35,10.0,Variable,3.5,-,N/A,,Clear,0,2012-12-12 14:53:00
10:53 AM,32.0,19.0,59,30.34,10.0,Variable,4.6,-,N/A,,Clear,0,2012-12-12 15:53:00
11:53 AM,33.1,18.0,54,30.33,10.0,Variable,3.5,-,N/A,,Clear,0,2012-12-12 16:53:00
12:53 PM,36.0,19.0,50,30.32,10.0,Calm,Calm,-,N/A,,Clear,0,2012-12-12 17:53:00
1:53 PM,36.0,17.1,46,30.32,10.0,WSW,3.5,-,N/A,,Clear,250,2012-12-12 18:53:00
2:53 PM,36.0,18.0,48,30.34,10.0,Calm,Calm,-,N/A,,Clear,0,2012-12-12 19:53:00
3:53 PM,32.0,19.9,61,30.36,10.0,Calm,Calm,-,N/A,,Clear,0,2012-12-12 20:53:00
4:53 PM,28.0,21.0,75,30.38,10.0,Calm,Calm,-,N/A,,Clear,0,2012-12-12 21:53:00
5:53 PM,26.1,21.0,81,30.38,10.0,Calm,Calm,-,N/A,,Clear,0,2012-12-12 22:53:00
6:53 PM,25.0,19.9,81,30.39,10.0,Calm,Calm,-,N/A,,Clear,0,2012-12-12 23:53:00
7:53 PM,23.0,19.9,88,30.40,10.0,Calm,Calm,-,N/A,,Clear,0,2012-12-13 00:53:00
8:53 PM,21.9,19.0,89,30.40,10.0,Calm,Calm,-,N/A,,Clear,0,2012-12-13 01:53:00
9:53 PM,21.9,18.0,85,30.41,10.0,Calm,Calm,-,N/A,,Clear,0,2012-12-13 02:53:00
10:53 PM,21.0,17.1,85,30.41,10.0,Calm,Calm,-,N/A,,Clear,0,2012-12-13 03:53:00
11:53 PM,19.9,17.1,89,30.41,10.0,Calm,Calm,-,N/A,,Clear,0,2012-12-13 04:53:00